Burnet, TX

1:18 PM CDT on July 22, 2017 (GMT -0500)
Burnet Municipal-Craddock

Weather History for KBMQ - May, 2013

Change the Weather History Date:

Wednesday, May 15, 2013

  Actual Average Record
Temperature  
Mean Temperature 74 °F -  
Max Temperature 84 °F 82 °F 93 °F (2003)
Min Temperature 64 °F 62 °F 46 °F (2014)
Cooling Degree Days 9    
Growing Degree Days 24 (Base 50)    
Moisture  
Dew Point 65 °F    
Average Humidity 83    
Maximum Humidity 94    
Minimum Humidity 53    
Precipitation  
Precipitation 0.81 in - - ()
Sea Level Pressure  
Sea Level Pressure 29.98 in    
Wind  
Wind Speed 12 mph (South)    
Max Wind Speed 30 mph    
Max Gust Speed 39 mph    
Visibility 7 miles    
Events Rain , Thunderstorm    
Averages and records for this station are not official NWS values.
T = Trace of Precipitation, MM = Missing Value Source: NWS Daily Summary

Daily Weather History Graph

Daily Weather History Graph

Search for Another Location

Airport or City:

Trip Planner

Search our weather history database for the weather conditions in past years. The results will help you decide how hot, cold, wet, or windy it might be!

Date:

Astronomy

May. 15, 2013 Rise Set
Actual Time 6:37 AM CDT 8:21 PM CDT
Civil Twilight 6:11 AM CDT 8:47 PM CDT
Nautical Twilight 5:39 AM CDT 9:19 PM CDT
Astronomical Twilight 5:06 AM CDT 9:52 PM CDT
Moon 11:11 AM CDT (5/15) 12:10 AM CDT (5/15)
Length of Visible Light 14h 36m
Length of Day
13h 43m
Waxing Crescent, 27% of the Moon is Illuminated
May 15
Waxing Crescent
May 17
First Quarter
May 24
Full
May 31
Last Quarter
Jun 8
New

Hourly Weather History & Observations

Time (CDT) Temp. Heat Index Dew Point Humidity Pressure Visibility Wind Dir Wind Speed Gust Speed Precip Events Conditions
12:53 AM 73.0 °F - 64.0 °F 73% 30.06 in 10.0 mi South 19.6 mph 24.2 mph N/A   Overcast
1:53 AM 72.0 °F - 64.0 °F 76% 30.05 in 10.0 mi South 13.8 mph 20.7 mph N/A   Overcast
2:53 AM 71.1 °F - 64.0 °F 78% 30.02 in 9.0 mi South 10.4 mph - 0.00 in Rain Light Rain
3:11 AM 69.1 °F - 66.0 °F 90% 30.08 in 4.0 mi SW 8.1 mph - 0.01 in Rain Rain
3:15 AM 69.1 °F - 66.0 °F 90% 30.07 in 3.0 mi SW 6.9 mph 17.3 mph 0.02 in Rain , Thunderstorm Rain
3:21 AM 69.1 °F - 66.0 °F 90% 30.07 in 1.8 mi South 13.8 mph - 0.06 in Rain , Thunderstorm Heavy Thunderstorms and Rain
3:29 AM 66.9 °F - 64.0 °F 90% 30.11 in 0.8 mi SW 29.9 mph 39.1 mph 0.41 in Rain , Thunderstorm Heavy Thunderstorms and Rain
3:41 AM 64.0 °F - 61.0 °F 90% 30.08 in 1.0 mi SW 8.1 mph 29.9 mph 0.74 in Rain , Thunderstorm Heavy Thunderstorms and Rain
3:44 AM 64.0 °F - 61.0 °F 90% 30.08 in 2.0 mi SW 8.1 mph 28.8 mph 0.75 in Rain , Thunderstorm Thunderstorms and Rain
3:50 AM 64.4 °F - 62.6 °F 94% 30.07 in 3.0 mi South 3.5 mph - 0.76 in Rain , Thunderstorm Thunderstorms and Rain
3:53 AM 64.0 °F - 62.1 °F 93% 30.02 in 3.0 mi Calm Calm - 0.77 in Rain , Thunderstorm Thunderstorms and Rain
4:01 AM 64.0 °F - 61.0 °F 90% 30.04 in 4.0 mi ENE 5.8 mph - 0.03 in Rain , Thunderstorm Rain
4:18 AM 64.0 °F - 62.1 °F 93% 30.07 in 8.0 mi South 12.7 mph 17.3 mph 0.04 in Rain Light Rain
4:53 AM 64.0 °F - 62.1 °F 93% 30.00 in 10.0 mi ESE 4.6 mph - 0.04 in   Clear
5:53 AM 64.9 °F - 62.1 °F 90% 30.00 in 10.0 mi South 9.2 mph - N/A   Partly Cloudy
6:53 AM 66.0 °F - 63.0 °F 90% 30.01 in 10.0 mi SW 8.1 mph - N/A   Scattered Clouds
7:02 AM 66.0 °F - 63.0 °F 90% 30.05 in 10.0 mi SW 6.9 mph - N/A   Mostly Cloudy
7:35 AM 66.0 °F - 64.0 °F 93% 30.05 in 8.0 mi SSW 4.6 mph - N/A   Overcast
7:53 AM 66.9 °F - 64.9 °F 93% 30.01 in 6.0 mi South 6.9 mph - N/A   Overcast
8:00 AM 66.9 °F - 64.9 °F 93% 30.05 in 4.0 mi SSE 6.9 mph - N/A   Overcast
8:11 AM 68.0 °F - 66.0 °F 93% 30.05 in 3.0 mi SSE 9.2 mph - N/A   Overcast
8:53 AM 68.0 °F - 66.0 °F 93% 30.01 in 3.0 mi SSE 8.1 mph - N/A   Overcast
9:12 AM 69.1 °F - 66.0 °F 90% 30.05 in 3.0 mi SSE 8.1 mph - N/A   Overcast
9:49 AM 69.8 °F - 66.2 °F 88% 30.05 in 4.0 mi South 11.5 mph 19.6 mph N/A   Overcast
9:53 AM 70.0 °F - 66.9 °F 90% 30.00 in 5.0 mi SSE 10.4 mph 19.6 mph N/A   Overcast
10:53 AM 70.0 °F - 66.9 °F 90% 29.99 in 4.0 mi SSE 12.7 mph 20.7 mph N/A   Overcast
11:23 AM 70.0 °F - 68.0 °F 93% 30.03 in 3.0 mi South 10.4 mph 17.3 mph 0.00 in Rain Light Rain
11:53 AM 71.1 °F - 68.0 °F 90% 29.97 in 5.0 mi SSE 11.5 mph 18.4 mph 0.00 in   Overcast
12:01 PM 72.0 °F - 69.1 °F 91% 30.01 in 5.0 mi SSE 9.2 mph 17.3 mph N/A   Overcast
12:41 PM 73.9 °F - 68.0 °F 82% 30.00 in 8.0 mi South 10.4 mph 19.6 mph N/A   Overcast
12:53 PM 73.9 °F - 68.0 °F 82% 29.96 in 9.0 mi South 10.4 mph - N/A   Overcast
1:24 PM 77.0 °F - 68.0 °F 74% 29.98 in 9.0 mi South 13.8 mph 20.7 mph N/A   Overcast
1:51 PM 78.8 °F - 66.2 °F 65% 29.97 in 10.0 mi South 12.7 mph 25.3 mph N/A   Scattered Clouds
1:53 PM 79.0 °F - 68.0 °F 69% 29.92 in 10.0 mi South 15.0 mph 25.3 mph N/A   Scattered Clouds
2:53 PM 82.0 °F 84.1 °F 66.0 °F 58% 29.88 in 10.0 mi South 16.1 mph 29.9 mph N/A   Scattered Clouds
3:53 PM 84.0 °F 85.8 °F 64.9 °F 53% 29.86 in 10.0 mi South 13.8 mph 25.3 mph N/A   Partly Cloudy
4:53 PM 84.0 °F 86.3 °F 66.0 °F 55% 29.83 in 10.0 mi South 17.3 mph 27.6 mph N/A   Scattered Clouds
5:53 PM 84.9 °F 87.1 °F 66.0 °F 53% 29.81 in 10.0 mi South 16.1 mph 24.2 mph N/A   Scattered Clouds
6:53 PM 82.0 °F 84.5 °F 66.9 °F 60% 29.78 in 10.0 mi South 12.7 mph 24.2 mph N/A   Clear
7:53 PM 79.0 °F - 68.0 °F 69% 29.79 in 10.0 mi SSE 12.7 mph 21.9 mph N/A   Clear
8:53 PM 75.9 °F - 68.0 °F 76% 29.81 in 10.0 mi SSE 13.8 mph 24.2 mph N/A   Scattered Clouds
9:53 PM 73.9 °F - 68.0 °F 82% 29.81 in 10.0 mi SSE 10.4 mph 24.2 mph N/A   Clear
10:53 PM 73.0 °F - 68.0 °F 84% 29.79 in 9.0 mi South 16.1 mph 31.1 mph N/A   Clear
11:26 PM 73.0 °F - 68.0 °F 84% 29.86 in 9.0 mi SSE 13.8 mph 20.7 mph N/A   Mostly Cloudy
11:53 PM 73.0 °F - 68.0 °F 84% 29.81 in 8.0 mi SSE 12.7 mph 24.2 mph N/A   Overcast